Powrót do katalogu

SWOT

AktywnyNaukaLEO
NORAD 54754·PAYLOAD·🇺🇸 United States

Wystrzelony Dec 16, 2022 z Vandenberg Space Force Base

Loading…

Następne Przeloty (najbliższe 24 godziny)

TLE

ŚwieżeSource: CelesTrak SupGP

Epoka: Sep 14, 2026, 00:00 UTC

1 54754C 22173A   26257.00000000  .00000034  00000+0  23283-4 0  2577
2 54754  77.6083 275.4181 0000198 204.3842  53.8160 14.00172311    11

Śledź SWOT w czasie rzeczywistym z AllMySat

Download on the App Store